EW0531 Weather Reports


Display with metric or nautical units.
time (UTC)temp
F
wind
direction
speed
MPH
gust
MPH
rain 1hr
in
rain 24hr
in
rain mn
in
humidity
%
barometer
mb
20260831022540 60 252 2.0 12.0 0.00 0.35 0.10 84 1007.1
20260831022040 59 216 4.0 12.0 0.00 0.35 0.10 84 1007.1
20260831021600 59 284 3.0 9.0 0.00 0.35 0.10 85 1007.1
20260831021037 59 232 3.0 11.0 0.00 0.35 0.10 85 1007.1
20260831020537 59 246 2.0 11.0 0.00 0.35 0.10 85 1007.1
20260831020103 59 218 2.0 9.0 0.00 0.35 0.10 85 1007.1
20260831015534 59 232 4.0 9.0 0.00 0.35 0.10 85 1007.0
20260831015034 59 234 2.0 7.0 0.00 0.35 0.10 85 1007.0
20260831014557 59 196 2.0 8.0 0.00 0.35 0.10 85 1007.0
20260831014037 59 242 2.0 10.0 0.00 0.35 0.10 85 1006.9
20260831013537 59 242 4.0 10.0 0.00 0.35 0.10 85 1007.0
20260831013111 59 257 2.0 9.0 0.00 0.35 0.10 85 1007.0
20260831012535 59 223 1.0 7.0 0.00 0.35 0.10 85 1006.9
20260831012034 59 229 3.0 7.0 0.00 0.35 0.10 86 1006.9
20260831011600 59 229 2.0 8.0 0.00 0.35 0.10 86 1006.7
20260831011034 60 261 1.0 10.0 0.00 0.35 0.10 86 1006.8
20260831010538 60 246 3.0 10.0 0.00 0.35 0.10 86 1006.7
20260831010116 60 261 2.0 7.0 0.00 0.35 0.10 86 1006.5
20260831005537 60 243 2.0 7.0 0.02 0.35 0.10 86 1006.6
20260831005037 60 239 2.0 7.0 0.04 0.35 0.10 86 1006.6
20260831004609 60 0 2.0 8.0 0.05 0.35 0.10 86 1006.5
20260831004034 60 262 3.0 10.0 0.05 0.35 0.10 86 1006.5
20260831003535 60 248 3.0 10.0 0.06 0.35 0.10 86 1006.4
20260831003106 59 0 2.0 8.0 0.06 0.35 0.10 86 1006.4
20260831002534 60 224 3.0 8.0 0.06 0.35 0.10 85 1006.3
20260831002037 60 217 3.0 16.0 0.06 0.35 0.10 85 1006.2
20260831001557 60 236 5.0 16.0 0.07 0.35 0.10 85 1006.3
20260831001035 60 250 7.0 16.0 0.08 0.35 0.10 85 1006.2
20260831000537 60 229 6.0 16.0 0.09 0.35 0.10 84 1006.2
20260831000103 61 244 7.0 16.0 0.08 0.33 0.08 85 1006.1
20260830235539 62 256 6.0 12.0 0.07 0.32 0.07 85 1006.2
20260830235034 62 238 5.0 12.0 0.05 0.30 0.05 85 1006.1
20260830234603 62 250 6.0 13.0 0.04 0.29 0.04 85 1005.9
20260830234037 62 240 6.0 13.0 0.04 0.29 0.04 85 1006.0
20260830233534 62 249 6.0 12.0 0.03 0.29 0.03 85 1005.9
20260830233058 62 236 4.0 14.0 0.03 0.29 0.03 84 1005.9
20260830232534 62 251 6.0 15.0 0.03 0.29 0.03 83 1005.9
20260830232037 62 191 6.0 19.0 0.03 0.29 0.03 82 1005.9
20260830231555 62 221 9.0 22.0 0.03 0.28 0.03 80 1006.0
20260830231037 63 211 9.0 22.0 0.01 0.26 0.01 79 1006.2
20260830230537 64 242 11.0 21.0 0.00 0.25 0.00 80 1006.1
20260830230106 64 209 9.0 19.0 0.00 0.25 0.00 80 1006.0
20260830225537 64 243 10.0 19.0 0.00 0.25 0.25 80 1006.0
20260830225037 64 236 10.0 25.0 0.00 0.25 0.25 80 1006.0
20260830224607 64 232 10.0 25.0 0.00 0.25 0.25 80 1006.0
20260830224035 64 267 9.0 18.0 0.00 0.25 0.25 80 1005.9
20260830223535 64 231 8.0 18.0 0.00 0.25 0.25 81 1005.9
20260830223059 64 211 7.0 18.0 0.00 0.25 0.25 81 1005.9
20260830222535 64 201 10.0 20.0 0.00 0.25 0.25 81 1006.0
20260830222040 64 260 8.0 20.0 0.00 0.25 0.25 81 1006.1
20260830221554 64 167 11.0 20.0 0.00 0.25 0.25 81 1006.1
20260830221037 65 193 8.0 18.0 0.00 0.25 0.25 81 1006.1
20260830220537 64 206 9.0 19.0 0.00 0.25 0.25 81 1006.1
20260830220104 64 188 10.0 19.0 0.00 0.25 0.25 81 1006.2
20260830215537 64 247 10.0 19.0 0.00 0.25 0.25 80 1006.2
20260830215036 64 196 10.0 17.0 0.00 0.25 0.25 80 1006.3
20260830214600 64 221 9.0 20.0 0.00 0.25 0.25 80 1006.4
20260830214037 64 211 8.0 20.0 0.00 0.25 0.25 80 1006.4
20260830213538 64 202 9.0 19.0 0.00 0.25 0.25 80 1006.4
20260830213058 64 205 10.0 19.0 0.00 0.25 0.25 81 1006.4
20260830212536 64 218 7.0 18.0 0.00 0.25 0.25 81 1006.5
20260830212037 64 202 8.0 15.0 0.00 0.25 0.25 82 1006.5
20260830211557 64 220 6.0 16.0 0.00 0.25 0.25 82 1006.5
20260830211035 64 242 8.0 16.0 0.00 0.25 0.25 82 1006.5
20260830210537 64 235 7.0 14.0 0.00 0.25 0.25 82 1006.6
20260830210101 63 206 4.0 13.0 0.00 0.25 0.25 82 1006.7
20260830205536 64 230 7.0 14.0 0.00 0.25 0.25 82 1006.7
20260830205038 64 242 5.0 14.0 0.00 0.25 0.25 82 1006.8
20260830204600 64 225 7.0 18.0 0.00 0.25 0.25 83 1006.7
20260830204037 64 234 7.0 18.0 0.00 0.25 0.25 83 1006.7
20260830203537 64 242 6.0 18.0 0.00 0.25 0.25 83 1006.8
20260830203103 64 223 9.0 18.0 0.00 0.25 0.25 83 1006.9
20260830202536 64 236 6.0 17.0 0.00 0.25 0.25 84 1006.9
20260830202037 64 257 6.0 15.0 0.00 0.25 0.25 84 1006.9
20260830201559 63 257 7.0 14.0 0.00 0.25 0.25 85 1007.0
20260830201036 63 221 4.0 14.0 0.00 0.25 0.25 85 1006.9
20260830200536 63 252 6.0 14.0 0.00 0.25 0.25 85 1006.9
20260830200058 63 222 6.0 16.0 0.00 0.25 0.25 85 1007.0
20260830195537 63 258 6.0 16.0 0.00 0.25 0.25 85 1007.0
20260830195038 63 234 4.0 12.0 0.00 0.25 0.25 85 1006.9
20260830194613 63 224 4.0 15.0 0.00 0.25 0.25 85 1006.9
20260830194037 63 0 6.0 15.0 0.18 0.25 0.25 85 1006.9
20260830193538 63 215 5.0 15.0 0.22 0.25 0.25 86 1006.9
20260830193101 63 237 6.0 12.0 0.22 0.25 0.25 86 1006.9
20260830192538 63 231 5.0 13.0 0.22 0.25 0.25 86 1006.9
20260830192036 63 229 5.0 13.0 0.22 0.25 0.25 87 1007.0
20260830191558 63 242 5.0 12.0 0.22 0.25 0.25 87 1007.0
20260830191040 62 246 5.0 14.0 0.22 0.25 0.25 87 1006.9
20260830190537 62 225 6.0 14.0 0.22 0.25 0.25 86 1006.9
20260830190058 62 215 5.0 14.0 0.22 0.25 0.25 86 1006.9
20260830185537 62 232 7.0 14.0 0.23 0.25 0.25 85 1006.7
20260830185038 63 250 6.0 19.0 0.25 0.25 0.25 84 1006.7
20260830184605 64 221 9.0 19.0 0.24 0.24 0.24 83 1006.8
20260830184037 65 215 9.0 14.0 0.03 0.03 0.03 82 1006.8
20260830183541 65 190 6.0 14.0 0.03 0.03 0.03 82 1006.6
20260830183100 65 232 5.0 18.0 0.03 0.03 0.03 82 1006.7
20260830182538 65 207 6.0 18.0 0.03 0.03 0.03 82 1006.7
20260830182037 65 233 8.0 21.0 0.03 0.03 0.03 81 1006.7
20260830181603 65 243 8.0 21.0 0.03 0.03 0.03 81 1006.7
20260830181037 65 223 5.0 18.0 0.03 0.03 0.03 81 1006.9
20260830180538 66 190 7.0 18.0 0.03 0.03 0.03 80 1006.9
20260830180059 66 246 5.0 15.0 0.03 0.03 0.03 80 1007.0
20260830175538 67 236 6.0 15.0 0.00 0.00 0.00 78 1006.9
20260830175037 67 213 5.0 12.0 0.00 0.00 0.00 78 1006.9
20260830174638 67 222 5.0 12.0 0.00 0.00 0.00 77 1007.1
20260830174037 67 213 4.0 15.0 0.00 0.00 0.00 76 1007.2
20260830173536 67 213 5.0 15.0 0.00 0.00 0.00 75 1007.2
20260830173126 67 173 5.0 12.0 0.00 0.00 0.00 76 1007.2
20260830172536 67 222 5.0 12.0 0.00 0.00 0.00 76 1007.3
20260830172036 67 185 5.0 15.0 0.00 0.00 0.00 76 1007.5
20260830171611 67 217 6.0 15.0 0.00 0.00 0.00 75 1007.5
20260830171037 67 217 7.0 14.0 0.00 0.00 0.00 75 1007.5
20260830170537 67 237 5.0 13.0 0.00 0.00 0.00 76 1007.6
20260830170054 67 204 6.0 15.0 0.00 0.00 0.00 75 1007.6
20260830165536 67 215 5.0 15.0 0.00 0.00 0.00 75 1007.7
20260830165037 67 233 7.0 14.0 0.00 0.00 0.00 75 1007.8
20260830164625 67 240 7.0 16.0 0.00 0.00 0.00 75 1007.8
20260830164037 68 241 7.0 16.0 0.00 0.00 0.00 74 1007.8
20260830163537 68 240 7.0 16.0 0.00 0.00 0.00 73 1007.8
20260830163059 68 213 6.0 14.0 0.00 0.00 0.00 73 1007.9
20260830162537 68 209 8.0 14.0 0.00 0.00 0.00 72 1007.9
20260830162037 68 213 4.0 14.0 0.00 0.00 0.00 72 1007.8
20260830161612 68 217 7.0 16.0 0.00 0.00 0.00 72 1007.8
20260830161036 68 186 7.0 16.0 0.00 0.00 0.00 73 1007.9
20260830160540 68 237 6.0 14.0 0.00 0.00 0.00 73 1007.9
20260830160105 68 215 7.0 17.0 0.00 0.00 0.00 73 1008.0
20260830155536 68 227 5.0 17.0 0.00 0.00 0.00 73 1008.0
20260830155036 68 206 7.0 17.0 0.00 0.00 0.00 73 1008.2
20260830154555 68 209 7.0 15.0 0.00 0.00 0.00 73 1008.5
20260830154036 68 233 8.0 14.0 0.00 0.00 0.00 73 1008.5
20260830153537 68 257 7.0 14.0 0.00 0.00 0.00 73 1008.5
20260830153057 68 240 6.0 15.0 0.00 0.00 0.00 73 1008.6
20260830152537 68 244 8.0 17.0 0.00 0.00 0.00 73 1008.5
20260830152037 69 238 8.0 17.0 0.00 0.00 0.00 72 1008.5
20260830151601 69 190 7.0 13.0 0.00 0.00 0.00 71 1008.7
20260830151037 69 238 7.0 15.0 0.00 0.00 0.00 71 1008.7
20260830150537 69 225 8.0 19.0 0.00 0.00 0.00 71 1008.8
20260830150101 69 252 6.0 19.0 0.00 0.00 0.00 71 1008.7
20260830145540 69 273 8.0 18.0 0.00 0.02 0.00 71 1008.9
20260830145037 69 236 6.0 17.0 0.00 0.02 0.00 71 1008.9
20260830144600 69 265 8.0 19.0 0.00 0.02 0.00 71 1009.0
20260830144037 69 222 8.0 19.0 0.00 0.02 0.00 71 1009.1
20260830143536 69 124 8.0 18.0 0.00 0.02 0.00 71 1009.1
20260830143106 69 202 8.0 18.0 0.00 0.02 0.00 71 1009.2
20260830142536 70 223 8.0 18.0 0.00 0.02 0.00 70 1009.2
20260830142038 70 199 6.0 14.0 0.00 0.02 0.00 70 1009.2
20260830141559 70 184 6.0 15.0 0.00 0.02 0.00 70 1009.2
20260830141036 70 241 7.0 15.0 0.00 0.02 0.00 70 1009.3
20260830140536 70 275 5.0 15.0 0.00 0.02 0.00 70 1009.3
20260830140116 70 155 7.0 15.0 0.00 0.02 0.00 71 1009.2
20260830135541 70 231 7.0 22.0 0.00 0.02 0.00 70 1009.4
20260830135037 69 213 10.0 22.0 0.00 0.02 0.00 71 1009.3
20260830134604 69 206 9.0 21.0 0.00 0.02 0.00 69 1009.3
20260830134037 70 223 7.0 20.0 0.00 0.02 0.00 70 1009.3
20260830133539 70 229 10.0 20.0 0.00 0.02 0.00 71 1009.3
20260830133059 69 245 10.0 19.0 0.00 0.02 0.00 70 1009.4
20260830132537 69 281 7.0 16.0 0.00 0.02 0.00 70 1009.4
20260830132036 70 237 9.0 17.0 0.00 0.02 0.00 70 1009.4
20260830131608 70 244 9.0 18.0 0.00 0.02 0.00 69 1009.4
20260830131036 69 221 8.0 19.0 0.00 0.02 0.00 70 1009.4
20260830130538 69 207 9.0 19.0 0.00 0.02 0.00 70 1009.5
20260830130059 70 240 7.0 17.0 0.00 0.02 0.00 70 1009.6
20260830125536 70 215 8.0 17.0 0.00 0.08 0.00 70 1009.5
20260830125037 69 216 11.0 18.0 0.00 0.08 0.00 70 1009.6
20260830124606 69 240 8.0 18.0 0.00 0.08 0.00 71 1009.6
20260830124040 69 232 9.0 17.0 0.00 0.08 0.00 71 1009.7
20260830123540 69 234 6.0 19.0 0.00 0.08 0.00 72 1009.7
20260830123109 69 196 11.0 19.0 0.00 0.08 0.00 71 1009.6
20260830122537 69 273 7.0 17.0 0.00 0.08 0.00 73 1009.6
20260830122037 68 188 9.0 18.0 0.00 0.08 0.00 73 1009.7
20260830121558 68 261 10.0 18.0 0.00 0.08 0.00 72 1009.8
20260830121036 68 244 9.0 16.0 0.00 0.08 0.00 72 1009.8
20260830120537 68 211 8.0 21.0 0.00 0.08 0.00 73 1009.9
20260830120109 68 249 9.0 21.0 0.00 0.08 0.00 72 1009.9
20260830115537 68 178 9.0 21.0 0.00 0.13 0.00 72 1009.8
20260830115037 68 215 11.0 21.0 0.00 0.13 0.00 71 1009.7
20260830114600 68 258 12.0 20.0 0.00 0.13 0.00 70 1009.7
20260830114041 69 233 8.0 18.0 0.00 0.13 0.00 72 1009.7
20260830113538 69 238 8.0 17.0 0.00 0.13 0.00 71 1009.8
20260830113057 69 215 8.0 17.0 0.00 0.13 0.00 71 1009.7
20260830112536 69 238 7.0 16.0 0.00 0.13 0.00 71 1009.7
20260830112037 69 224 8.0 14.0 0.00 0.13 0.00 71 1009.9
20260830111554 69 227 4.0 15.0 0.00 0.13 0.00 74 1009.9
20260830111036 68 281 8.0 17.0 0.00 0.13 0.00 73 1010.0
20260830110535 68 268 9.0 17.0 0.00 0.13 0.00 74 1010.1
20260830110105 68 269 7.0 16.0 0.00 0.13 0.00 75 1010.1
20260830105537 68 199 8.0 16.0 0.00 0.13 0.00 76 1010.2
20260830105036 67 254 9.0 17.0 0.00 0.13 0.00 75 1010.2
20260830104607 67 173 9.0 17.0 0.00 0.13 0.00 75 1010.2
20260830104038 67 225 7.0 17.0 0.00 0.13 0.00 75 1010.3
20260830103537 67 224 7.0 20.0 0.00 0.13 0.00 75 1010.2
20260830103111 67 166 12.0 20.0 0.00 0.13 0.00 74 1010.1
20260830102537 67 212 7.0 18.0 0.00 0.13 0.00 75 1010.2
20260830102038 67 224 7.0 19.0 0.00 0.13 0.00 75 1010.3
20260830101604 67 205 10.0 19.0 0.00 0.13 0.00 75 1010.3
20260830101036 67 188 6.0 19.0 0.00 0.13 0.00 77 1010.4
20260830100536 67 238 9.0 19.0 0.00 0.13 0.00 77 1010.4
20260830100055 67 213 6.0 16.0 0.00 0.13 0.00 78 1010.4
20260830095537 67 278 6.0 14.0 0.00 0.14 0.00 78 1010.5
20260830095040 67 174 5.0 14.0 0.00 0.14 0.00 78 1010.5
20260830094633 68 202 6.0 14.0 0.00 0.14 0.00 77 1010.6
20260830094034 68 194 5.0 14.0 0.00 0.14 0.00 74 1010.5
20260830093536 68 223 4.0 11.0 0.00 0.14 0.00 73 1010.5
20260830093106 67 193 4.0 10.0 0.00 0.14 0.00 73 1010.6
20260830092536 66 225 5.0 12.0 0.00 0.14 0.00 73 1010.6
20260830092040 66 221 6.0 14.0 0.00 0.14 0.00 74 1010.6
20260830091603 66 224 4.0 14.0 0.00 0.14 0.00 79 1010.6
20260830091040 66 229 6.0 14.0 0.00 0.14 0.00 79 1010.6
20260830090537 66 216 6.0 13.0 0.00 0.14 0.00 81 1010.6
20260830090104 66 196 3.0 14.0 0.00 0.14 0.00 81 1010.7
20260830085536 67 196 5.0 14.0 0.00 0.24 0.00 80 1010.7
20260830085036 67 194 4.0 11.0 0.00 0.24 0.00 80 1010.7
20260830084608 67 211 4.0 11.0 0.00 0.24 0.00 80 1010.7
20260830084035 67 166 5.0 11.0 0.00 0.24 0.00 80 1010.6
20260830083536 67 254 4.0 12.0 0.00 0.24 0.00 80 1010.5
20260830083121 67 232 4.0 12.0 0.00 0.24 0.00 80 1010.5
20260830082536 66 219 6.0 12.0 0.00 0.24 0.00 80 1010.6
20260830082041 66 218 3.0 8.0 0.00 0.24 0.00 81 1010.6
20260830081605 66 205 3.0 11.0 0.00 0.24 0.00 82 1010.5
20260830081037 66 190 4.0 11.0 0.00 0.24 0.00 82 1010.6
20260830080537 66 217 4.0 10.0 0.00 0.24 0.00 82 1010.6
20260830080058 66 266 4.0 10.0 0.00 0.24 0.00 83 1010.7
20260830075537 65 237 5.0 10.0 0.00 0.37 0.00 84 1010.6
20260830075036 65 215 4.0 9.0 0.00 0.37 0.00 85 1010.5
20260830074559 65 205 3.0 6.0 0.00 0.37 0.00 85 1010.5
20260830074036 64 225 1.0 7.0 0.00 0.37 0.00 85 1010.5
20260830073536 64 196 3.0 7.0 0.00 0.37 0.00 85 1010.5
20260830073057 64 182 2.0 6.0 0.00 0.37 0.00 86 1010.6
20260830072536 64 231 0.0 6.0 0.00 0.37 0.00 86 1010.5
20260830072037 64 0 0.0 1.0 0.00 0.37 0.00 86 1010.6
20260830071617 64 0 0.0 2.0 0.00 0.37 0.00 86 1010.5
20260830071037 63 0 0.0 4.0 0.00 0.37 0.00 86 1010.5
20260830070538 63 0 0.0 4.0 0.00 0.37 0.00 87 1010.5
20260830065536 63 0 1.0 6.0 0.00 0.54 0.00 87 1010.5
20260830065037 63 227 1.0 6.0 0.00 0.54 0.00 87 1010.5
20260830064558 62 0 0.0 3.0 0.00 0.54 0.00 87 1010.4
20260830064039 62 0 0.0 3.0 0.00 0.54 0.00 88 1010.4
20260830063536 62 0 0.0 3.0 0.00 0.54 0.00 88 1010.4
20260830063053 62 0 0.0 3.0 0.00 0.54 0.00 88 1010.4
20260830062536 62 0 0.0 3.0 0.00 0.54 0.00 88 1010.4
20260830062036 61 225 0.0 3.0 0.00 0.54 0.00 88 1010.4
20260830061558 61 235 0.0 3.0 0.00 0.54 0.00 89 1010.4
20260830061036 61 0 0.0 2.0 0.00 0.54 0.00 89 1010.4
20260830060538 60 0 0.0 4.0 0.00 0.54 0.00 88 1010.3
20260830060100 60 0 0.0 4.0 0.00 0.54 0.00 89 1010.3
20260830055535 60 0 0.0 4.0 0.00 0.55 0.00 88 1010.2
20260830055038 60 0 0.0 0.0 0.00 0.55 0.00 88 1010.1
20260830054605 60 0 0.0 0.0 0.00 0.55 0.00 87 1010.1
20260830054036 60 0 0.0 0.0 0.00 0.55 0.00 87 1010.1
20260830053539 60 0 0.0 2.0 0.00 0.55 0.00 87 1010.0
20260830053114 60 0 0.0 4.0 0.00 0.55 0.00 88 1010.1
20260830052537 60 0 0.0 4.0 0.00 0.55 0.00 88 1010.1
20260830052037 60 259 0.0 2.0 0.00 0.55 0.00 87 1010.1
20260830051558 60 0 0.0 2.0 0.00 0.55 0.00 87 1010.1
20260830051037 60 0 0.0 2.0 0.00 0.55 0.00 87 1010.2
20260830050537 60 0 0.0 3.0 0.00 0.55 0.00 87 1010.1
20260830050125 60 0 0.0 4.0 0.00 0.55 0.00 87 1010.1
20260830045537 60 0 1.0 4.0 0.00 0.55 0.00 87 1010.0
20260830045035 60 257 1.0 4.0 0.00 0.55 0.00 87 1010.1
20260830044603 60 0 0.0 1.0 0.00 0.55 0.00 86 1010.1
20260830044038 60 0 0.0 3.0 0.00 0.55 0.00 86 1010.1
20260830043537 60 260 0.0 3.0 0.00 0.55 0.00 86 1010.1
20260830043103 60 258 1.0 3.0 0.00 0.55 0.00 86 1010.1
20260830042537 60 276 1.0 4.0 0.00 0.55 0.00 86 1010.0
20260830042037 60 0 0.0 4.0 0.00 0.55 0.00 86 1010.1
20260830041626 60 0 0.0 3.0 0.00 0.55 0.00 86 1010.1
20260830041036 60 0 0.0 3.0 0.00 0.55 0.00 86 1010.1
20260830040536 60 0 0.0 6.0 0.00 0.55 0.00 86 1010.0
20260830040115 60 0 1.0 6.0 0.00 0.55 0.00 86 1010.0
20260830035537 60 254 1.0 6.0 0.00 0.55 0.00 86 1009.9
20260830035037 60 235 0.0 5.0 0.00 0.55 0.00 86 1010.0
20260830034606 60 225 1.0 5.0 0.00 0.55 0.00 86 1010.0
20260830034038 60 254 0.0 4.0 0.00 0.55 0.00 86 1010.0
20260830033536 60 0 0.0 4.0 0.00 0.55 0.00 85 1010.1
20260830033102 60 0 0.0 4.0 0.00 0.55 0.00 85 1010.0
20260830032536 60 0 0.0 3.0 0.00 0.55 0.00 85 1010.0
20260830032036 60 0 0.0 5.0 0.00 0.55 0.00 85 1010.0
20260830031557 61 0 1.0 5.0 0.00 0.55 0.00 85 1009.9
20260830031036 61 257 1.0 6.0 0.00 0.55 0.00 85 1009.9
20260830030538 61 254 0.0 6.0 0.00 0.55 0.00 85 1009.9
20260830030104 61 0 0.0 3.0 0.00 0.55 0.00 85 1010.0
20260830025536 61 236 0.0 2.0 0.00 0.55 0.00 85 1009.9
20260830025036 61 0 0.0 3.0 0.00 0.55 0.00 84 1009.8
20260830024605 61 0 0.0 3.0 0.00 0.55 0.00 84 1009.9
20260830024036 61 0 0.0 3.0 0.00 0.55 0.00 84 1009.7
20260830023536 61 0 0.0 4.0 0.00 0.55 0.00 84 1009.8
20260830023101 61 215 1.0 4.0 0.00 0.55 0.00 84 1009.8